Year,Month,Day,Hour,Minute,Value (Times are PST for temperature in C)
2014,04,14,00,00,6.90
2014,04,14,00,01,6.90
2014,04,14,00,02,6.90
2014,04,14,00,03,6.90
2014,04,14,00,04,6.90
2014,04,14,00,05,6.90
2014,04,14,00,06,6.90
2014,04,14,00,07,7.00
2014,04,14,00,08,7.00
2014,04,14,00,09,7.00
2014,04,14,00,10,7.00
2014,04,14,00,11,7.10
2014,04,14,00,12,7.10
2014,04,14,00,13,7.10
2014,04,14,00,14,7.10
2014,04,14,00,15,7.20
2014,04,14,00,16,7.20
2014,04,14,00,17,7.20
2014,04,14,00,18,7.20
2014,04,14,00,19,7.20
2014,04,14,00,20,7.20
2014,04,14,00,21,7.20
2014,04,14,00,22,7.20
2014,04,14,00,23,7.20
2014,04,14,00,24,7.20
2014,04,14,00,25,7.20
2014,04,14,00,26,7.20
2014,04,14,00,27,7.20
2014,04,14,00,28,7.20
2014,04,14,00,29,7.20
2014,04,14,00,30,7.20
2014,04,14,00,31,7.20
2014,04,14,00,32,7.20
2014,04,14,00,33,7.20
2014,04,14,00,34,7.20
2014,04,14,00,35,7.20
2014,04,14,00,36,7.20
2014,04,14,00,37,7.20
2014,04,14,00,38,7.20
2014,04,14,00,39,7.20
2014,04,14,00,40,7.20
2014,04,14,00,41,7.20
2014,04,14,00,42,7.20
2014,04,14,00,43,7.10
2014,04,14,00,44,7.10
2014,04,14,00,45,7.10
2014,04,14,00,46,7.10
2014,04,14,00,47,7.10
2014,04,14,00,48,7.10
2014,04,14,00,49,7.10
2014,04,14,00,50,7.10
2014,04,14,00,51,7.10
2014,04,14,00,52,7.10
2014,04,14,00,53,7.10
2014,04,14,00,54,7.10
2014,04,14,00,55,7.10
2014,04,14,00,56,7.00
2014,04,14,00,57,7.00
2014,04,14,00,58,7.00
2014,04,14,00,59,7.00
2014,04,14,01,00,6.90
2014,04,14,01,01,6.90
2014,04,14,01,02,6.90
2014,04,14,01,03,6.90
2014,04,14,01,04,6.80
2014,04,14,01,05,6.80
2014,04,14,01,06,6.70
2014,04,14,01,07,6.70
2014,04,14,01,08,6.60
2014,04,14,01,09,6.60
2014,04,14,01,10,6.50
2014,04,14,01,11,6.40
2014,04,14,01,12,6.40
2014,04,14,01,13,6.30
2014,04,14,01,14,6.30
2014,04,14,01,15,6.20
2014,04,14,01,16,6.20
2014,04,14,01,17,6.10
2014,04,14,01,18,6.10
2014,04,14,01,19,6.00
2014,04,14,01,20,6.00
2014,04,14,01,21,5.90
2014,04,14,01,22,5.90
2014,04,14,01,23,5.90
2014,04,14,01,24,5.80
2014,04,14,01,25,5.80
2014,04,14,01,26,5.80
2014,04,14,01,27,5.80
2014,04,14,01,28,5.80
2014,04,14,01,29,5.80
2014,04,14,01,30,5.80
2014,04,14,01,31,5.80
2014,04,14,01,32,5.70
2014,04,14,01,33,5.70
2014,04,14,01,34,5.80
2014,04,14,01,35,5.80
2014,04,14,01,36,5.80
2014,04,14,01,37,5.80
2014,04,14,01,38,5.90
2014,04,14,01,39,5.90
2014,04,14,01,40,5.90
2014,04,14,01,41,5.90
2014,04,14,01,42,6.00
2014,04,14,01,43,6.00
2014,04,14,01,44,6.00
2014,04,14,01,45,6.00
2014,04,14,01,46,6.00
2014,04,14,01,47,6.00
2014,04,14,01,48,6.00
2014,04,14,01,49,6.00
2014,04,14,01,50,5.90
2014,04,14,01,51,5.90
2014,04,14,01,52,5.90
2014,04,14,01,53,5.80
2014,04,14,01,54,5.80
2014,04,14,01,55,5.80
2014,04,14,01,56,5.80
2014,04,14,01,57,5.80
2014,04,14,01,58,5.80
2014,04,14,01,59,5.80
2014,04,14,02,00,5.70
2014,04,14,02,01,5.70
2014,04,14,02,02,5.70
2014,04,14,02,03,5.70
2014,04,14,02,04,5.60
2014,04,14,02,05,5.60
2014,04,14,02,06,5.60
2014,04,14,02,07,5.60
2014,04,14,02,08,5.60
2014,04,14,02,09,5.60
2014,04,14,02,10,5.50
2014,04,14,02,11,5.50
2014,04,14,02,12,5.50
2014,04,14,02,13,5.50
2014,04,14,02,14,5.40
2014,04,14,02,15,5.40
2014,04,14,02,16,5.40
2014,04,14,02,17,5.40
2014,04,14,02,18,5.40
2014,04,14,02,19,5.40
2014,04,14,02,20,5.40
2014,04,14,02,21,5.40
2014,04,14,02,22,5.40
2014,04,14,02,23,5.40
2014,04,14,02,24,5.50
2014,04,14,02,25,5.50
2014,04,14,02,26,5.50
2014,04,14,02,27,5.50
2014,04,14,02,28,5.60
2014,04,14,02,29,5.60
2014,04,14,02,30,5.60
2014,04,14,02,31,5.60
2014,04,14,02,32,5.60
2014,04,14,02,33,5.60
2014,04,14,02,34,5.60
2014,04,14,02,35,5.60
2014,04,14,02,36,5.60
2014,04,14,02,37,5.60
2014,04,14,02,38,5.60
2014,04,14,02,39,5.60
2014,04,14,02,40,5.60
2014,04,14,02,41,5.60
2014,04,14,02,42,5.60
2014,04,14,02,43,5.60
2014,04,14,02,44,5.50
2014,04,14,02,45,5.50
2014,04,14,02,46,5.50
2014,04,14,02,47,5.50
2014,04,14,02,48,5.50
2014,04,14,02,49,5.50
2014,04,14,02,50,5.50
2014,04,14,02,51,5.60
2014,04,14,02,52,5.60
2014,04,14,02,53,5.60
2014,04,14,02,54,5.70
2014,04,14,02,55,5.70
2014,04,14,02,56,5.70
2014,04,14,02,57,5.80
2014,04,14,02,58,5.80
2014,04,14,02,59,5.80
2014,04,14,03,00,5.80
2014,04,14,03,01,5.80
2014,04,14,03,02,5.80
2014,04,14,03,06,5.80
2014,04,14,03,07,5.80
2014,04,14,03,08,5.80
2014,04,14,03,09,5.70
2014,04,14,03,10,5.70
2014,04,14,03,11,5.70
2014,04,14,03,12,5.70
2014,04,14,03,13,5.70
2014,04,14,03,14,5.70
2014,04,14,03,15,5.70
2014,04,14,03,16,5.70
2014,04,14,03,17,5.60
2014,04,14,03,18,5.60
2014,04,14,03,19,5.60
2014,04,14,03,20,5.60
2014,04,14,03,21,5.60
2014,04,14,03,22,5.60
2014,04,14,03,23,5.60
2014,04,14,03,24,5.60
2014,04,14,03,25,5.60
2014,04,14,03,26,5.60
2014,04,14,03,27,5.60
2014,04,14,03,28,5.60
2014,04,14,03,29,5.50
2014,04,14,03,30,5.50
2014,04,14,03,31,5.50
2014,04,14,03,32,5.50
2014,04,14,03,33,5.50
2014,04,14,03,34,5.50
2014,04,14,03,35,5.40
2014,04,14,03,36,5.40
2014,04,14,03,37,5.40
2014,04,14,03,38,5.40
2014,04,14,03,39,5.40
2014,04,14,03,40,5.40
2014,04,14,03,41,5.40
2014,04,14,03,42,5.40
2014,04,14,03,43,5.30
2014,04,14,03,44,5.30
2014,04,14,03,45,5.30
2014,04,14,03,46,5.30
2014,04,14,03,47,5.30
2014,04,14,03,48,5.30
2014,04,14,03,49,5.20
2014,04,14,03,50,5.20
2014,04,14,03,51,5.20
2014,04,14,03,52,5.20
2014,04,14,03,53,5.20
2014,04,14,03,54,5.20
2014,04,14,03,55,5.20
2014,04,14,03,56,5.10
2014,04,14,03,57,5.10
2014,04,14,03,58,5.10
2014,04,14,03,59,5.10
2014,04,14,04,00,5.10
2014,04,14,04,01,5.10
2014,04,14,04,02,5.10
2014,04,14,04,03,5.10
2014,04,14,04,04,5.10
2014,04,14,04,05,5.00
2014,04,14,04,06,5.00
2014,04,14,04,07,5.00
2014,04,14,04,08,5.00
2014,04,14,04,09,5.00
2014,04,14,04,10,5.00
2014,04,14,04,11,5.00
2014,04,14,04,12,5.00
2014,04,14,04,13,5.00
2014,04,14,04,14,4.90
2014,04,14,04,15,4.90
2014,04,14,04,16,4.90
2014,04,14,04,17,4.90
2014,04,14,04,18,4.80
2014,04,14,04,19,4.80
2014,04,14,04,20,4.80
2014,04,14,04,21,4.80
2014,04,14,04,22,4.80
2014,04,14,04,23,4.80
2014,04,14,04,24,4.80
2014,04,14,04,25,4.80
2014,04,14,04,26,4.80
2014,04,14,04,27,4.80
2014,04,14,04,28,4.80
2014,04,14,04,29,4.80
2014,04,14,04,30,4.80
2014,04,14,04,31,4.80
2014,04,14,04,32,4.80
2014,04,14,04,33,4.80
2014,04,14,04,34,4.80
2014,04,14,04,35,4.80
2014,04,14,04,36,4.80
2014,04,14,04,37,4.80
2014,04,14,04,38,4.80
2014,04,14,04,39,4.80
2014,04,14,04,40,4.80
2014,04,14,04,41,4.80
2014,04,14,04,42,4.80
2014,04,14,04,43,4.80
2014,04,14,04,44,4.80
2014,04,14,04,45,4.70
2014,04,14,04,46,4.70
2014,04,14,04,47,4.70
2014,04,14,04,48,4.70
2014,04,14,04,49,4.70
2014,04,14,04,50,4.70
2014,04,14,04,51,4.60
2014,04,14,04,52,4.60
2014,04,14,04,53,4.60
2014,04,14,04,54,4.60
2014,04,14,04,55,4.60
2014,04,14,04,56,4.60
2014,04,14,04,57,4.60
2014,04,14,04,58,4.60
2014,04,14,04,59,4.60
2014,04,14,05,00,4.60
2014,04,14,05,01,4.60
2014,04,14,05,02,4.60
2014,04,14,05,03,4.60
2014,04,14,05,04,4.60
2014,04,14,05,05,4.50
2014,04,14,05,06,4.50
2014,04,14,05,07,4.50
2014,04,14,05,08,4.50
2014,04,14,05,09,4.50
2014,04,14,05,10,4.50
2014,04,14,05,11,4.50
2014,04,14,05,12,4.40
2014,04,14,05,13,4.40
2014,04,14,05,14,4.40
2014,04,14,05,15,4.40
2014,04,14,05,16,4.40
2014,04,14,05,17,4.40
2014,04,14,05,18,4.40
2014,04,14,05,19,4.50
2014,04,14,05,20,4.50
2014,04,14,05,21,4.50
2014,04,14,05,22,4.60
2014,04,14,05,23,4.60
2014,04,14,05,24,4.60
2014,04,14,05,25,4.60
2014,04,14,05,26,4.60
2014,04,14,05,27,4.60
2014,04,14,05,28,4.60
2014,04,14,05,29,4.60
2014,04,14,05,30,4.60
2014,04,14,05,31,4.60
2014,04,14,05,32,4.60
2014,04,14,05,33,4.60
2014,04,14,05,34,4.60
2014,04,14,05,35,4.60
2014,04,14,05,36,4.60
2014,04,14,05,37,4.60
2014,04,14,05,38,4.60
2014,04,14,05,39,4.60
2014,04,14,05,40,4.60
2014,04,14,05,41,4.60
2014,04,14,05,42,4.60
2014,04,14,05,43,4.60
2014,04,14,05,44,4.60
2014,04,14,05,45,4.60
2014,04,14,05,46,4.60
2014,04,14,05,47,4.60
2014,04,14,05,48,4.60
2014,04,14,05,49,4.50
2014,04,14,05,50,4.50
2014,04,14,05,51,4.40
2014,04,14,05,52,4.40
2014,04,14,05,53,4.40
2014,04,14,05,54,4.40
2014,04,14,05,55,4.40
2014,04,14,05,56,4.30
2014,04,14,05,57,4.30
2014,04,14,05,58,4.30
2014,04,14,05,59,4.20
2014,04,14,06,00,4.20
2014,04,14,06,01,4.20
2014,04,14,06,02,4.10
2014,04,14,06,03,4.10
2014,04,14,06,04,4.10
2014,04,14,06,05,4.10
2014,04,14,06,06,4.10
2014,04,14,06,07,4.10
2014,04,14,06,08,4.10
2014,04,14,06,09,4.10
2014,04,14,06,10,4.10
2014,04,14,06,11,4.10
2014,04,14,06,12,4.20
2014,04,14,06,13,4.20
2014,04,14,06,14,4.20
2014,04,14,06,15,4.10
2014,04,14,06,16,4.10
2014,04,14,06,17,4.00
2014,04,14,06,18,4.00
2014,04,14,06,19,4.00
2014,04,14,06,20,3.90
2014,04,14,06,21,3.90
2014,04,14,06,22,3.90
2014,04,14,06,23,3.90
2014,04,14,06,24,3.90
2014,04,14,06,25,3.90
2014,04,14,06,26,4.00
2014,04,14,06,27,4.00
2014,04,14,06,28,4.10
2014,04,14,06,29,4.10
2014,04,14,06,30,4.10
2014,04,14,06,31,4.20
2014,04,14,06,32,4.20
2014,04,14,06,33,4.30
2014,04,14,06,34,4.30
2014,04,14,06,35,4.30
2014,04,14,06,36,4.40
2014,04,14,06,37,4.40
2014,04,14,06,38,4.40
2014,04,14,06,39,4.40
2014,04,14,06,40,4.40
2014,04,14,06,41,4.50
2014,04,14,06,42,4.50
2014,04,14,06,43,4.60
2014,04,14,06,44,4.60
2014,04,14,06,45,4.60
2014,04,14,06,46,4.60
2014,04,14,06,47,4.60
2014,04,14,06,48,4.60
2014,04,14,06,49,4.60
2014,04,14,06,50,4.60
2014,04,14,06,51,4.60
2014,04,14,06,52,4.60
2014,04,14,06,53,4.60
2014,04,14,06,54,4.60
2014,04,14,06,55,4.60
2014,04,14,06,56,4.60
2014,04,14,06,57,4.60
2014,04,14,06,58,4.60
2014,04,14,06,59,4.60
2014,04,14,07,00,4.60
2014,04,14,07,01,4.60
2014,04,14,07,02,4.70
2014,04,14,07,03,4.70
2014,04,14,07,04,4.70
2014,04,14,07,05,4.70
2014,04,14,07,06,4.70
2014,04,14,07,07,4.80
2014,04,14,07,08,4.80
2014,04,14,07,09,4.80
2014,04,14,07,10,4.80
2014,04,14,07,11,4.80
2014,04,14,07,12,4.80
2014,04,14,07,13,4.90
2014,04,14,07,14,4.90
2014,04,14,07,15,4.90
2014,04,14,07,16,4.90
2014,04,14,07,17,5.00
2014,04,14,07,18,5.00
2014,04,14,07,19,5.00
2014,04,14,07,20,5.10
2014,04,14,07,21,5.10
2014,04,14,07,22,5.10
2014,04,14,07,23,5.20
2014,04,14,07,24,5.20
2014,04,14,07,25,5.20
2014,04,14,07,26,5.30
2014,04,14,07,27,5.30
2014,04,14,07,28,5.40
2014,04,14,07,29,5.40
2014,04,14,07,30,5.40
2014,04,14,07,31,5.50
2014,04,14,07,32,5.50
2014,04,14,07,33,5.60
2014,04,14,07,34,5.60
2014,04,14,07,35,5.70
2014,04,14,07,36,5.70
2014,04,14,07,37,5.80
2014,04,14,07,38,5.80
2014,04,14,07,39,5.80
2014,04,14,07,40,5.90
2014,04,14,07,41,5.90
2014,04,14,07,42,5.90
2014,04,14,07,43,5.90
2014,04,14,07,44,5.90
2014,04,14,07,45,5.90
2014,04,14,07,46,6.00
2014,04,14,07,47,6.00
2014,04,14,07,48,6.10
2014,04,14,07,49,6.10
2014,04,14,07,50,6.10
2014,04,14,07,51,6.10
2014,04,14,07,52,6.20
2014,04,14,07,53,6.20
2014,04,14,07,54,6.20
2014,04,14,07,55,6.30
2014,04,14,07,56,6.30
2014,04,14,07,57,6.40
2014,04,14,07,58,6.40
2014,04,14,07,59,6.40
2014,04,14,08,00,6.50
2014,04,14,08,01,6.60
2014,04,14,08,02,6.60
2014,04,14,08,03,6.70
2014,04,14,08,04,6.70
2014,04,14,08,05,6.80
2014,04,14,08,06,6.80
2014,04,14,08,07,6.80
2014,04,14,08,08,6.70
2014,04,14,08,09,6.70
2014,04,14,08,10,6.70
2014,04,14,08,11,6.70
2014,04,14,08,12,6.70
2014,04,14,08,13,6.70
2014,04,14,08,14,6.70
2014,04,14,08,15,6.70
2014,04,14,08,16,6.70
2014,04,14,08,17,6.70
2014,04,14,08,18,6.70
2014,04,14,08,19,6.70
2014,04,14,08,20,6.80
2014,04,14,08,21,6.80
2014,04,14,08,22,6.80
2014,04,14,08,23,6.80
2014,04,14,08,24,6.80
2014,04,14,08,25,6.80
2014,04,14,08,26,6.80
2014,04,14,08,27,6.80
2014,04,14,08,28,6.90
2014,04,14,08,29,6.90
2014,04,14,08,30,6.90
2014,04,14,08,31,6.90
2014,04,14,08,32,6.90
2014,04,14,08,33,6.90
2014,04,14,08,34,6.90
2014,04,14,08,35,6.90
2014,04,14,08,36,7.00
2014,04,14,08,37,7.00
2014,04,14,08,38,7.00
2014,04,14,08,39,7.10
2014,04,14,08,40,7.10
2014,04,14,08,41,7.20
2014,04,14,08,42,7.20
2014,04,14,08,43,7.20
2014,04,14,08,44,7.30
2014,04,14,08,45,7.30
2014,04,14,08,46,7.40
2014,04,14,08,47,7.50
2014,04,14,08,48,7.50
2014,04,14,08,49,7.60
2014,04,14,08,50,7.60
2014,04,14,08,51,7.70
2014,04,14,08,52,7.70
2014,04,14,08,53,7.80
2014,04,14,08,54,7.80
2014,04,14,08,55,7.80
2014,04,14,08,56,7.80
2014,04,14,08,57,7.90
2014,04,14,08,58,7.90
2014,04,14,08,59,7.90
2014,04,14,09,00,7.90
2014,04,14,09,01,7.90
2014,04,14,09,02,8.00
2014,04,14,09,03,8.00
2014,04,14,09,04,8.00
2014,04,14,09,05,8.10
2014,04,14,09,06,8.10
2014,04,14,09,07,8.10
2014,04,14,09,08,8.20
2014,04,14,09,09,8.20
2014,04,14,09,10,8.20
2014,04,14,09,11,8.30
2014,04,14,09,12,8.30
2014,04,14,09,13,8.30
2014,04,14,09,14,8.40
2014,04,14,09,15,8.40
2014,04,14,09,16,8.40
2014,04,14,09,17,8.50
2014,04,14,09,18,8.50
2014,04,14,09,19,8.60
2014,04,14,09,20,8.60
2014,04,14,09,21,8.70
2014,04,14,09,22,8.80
2014,04,14,09,23,8.80
2014,04,14,09,24,8.90
2014,04,14,09,25,9.00
2014,04,14,09,26,9.10
2014,04,14,09,27,9.20
2014,04,14,09,28,9.40
2014,04,14,09,29,9.50
2014,04,14,09,30,9.60
2014,04,14,09,31,9.70
2014,04,14,09,32,9.80
2014,04,14,09,33,10.00
2014,04,14,09,34,10.10
2014,04,14,09,35,10.20
2014,04,14,09,36,10.40
2014,04,14,09,37,10.50
2014,04,14,09,38,10.50
2014,04,14,09,39,10.60
2014,04,14,09,40,10.60
2014,04,14,09,41,10.60
2014,04,14,09,42,10.60
2014,04,14,09,43,10.60
2014,04,14,09,44,10.50
2014,04,14,09,45,10.50
2014,04,14,09,46,10.50
2014,04,14,09,47,10.50
2014,04,14,09,48,10.50
2014,04,14,09,49,10.50
2014,04,14,09,50,10.60
2014,04,14,09,51,10.60
2014,04,14,09,52,10.70
2014,04,14,09,53,10.70
2014,04,14,09,54,10.70
2014,04,14,09,55,10.80
2014,04,14,09,56,10.80
2014,04,14,09,57,10.80
2014,04,14,09,58,10.80
2014,04,14,09,59,10.80
2014,04,14,10,00,10.80
2014,04,14,10,01,10.90
2014,04,14,10,02,10.90
2014,04,14,10,03,10.90
2014,04,14,10,04,10.90
2014,04,14,10,05,10.90
2014,04,14,10,06,10.90
2014,04,14,10,07,10.90
2014,04,14,10,08,11.00
2014,04,14,10,09,11.00
2014,04,14,10,10,11.10
2014,04,14,10,11,11.10
2014,04,14,10,12,11.20
2014,04,14,10,13,11.30
2014,04,14,10,14,11.40
2014,04,14,10,15,11.50
2014,04,14,10,16,11.60
2014,04,14,10,17,11.80
2014,04,14,10,18,11.90
2014,04,14,10,19,11.90
2014,04,14,10,20,12.00
2014,04,14,10,21,12.00
2014,04,14,10,22,12.00
2014,04,14,10,23,12.10
2014,04,14,10,24,12.20
2014,04,14,10,25,12.30
2014,04,14,10,26,12.40
2014,04,14,10,27,12.40
2014,04,14,10,28,12.50
2014,04,14,10,29,12.60
2014,04,14,10,30,12.70
2014,04,14,10,31,12.70
2014,04,14,10,32,12.80
2014,04,14,10,33,12.80
2014,04,14,10,34,12.90
2014,04,14,10,35,13.00
2014,04,14,10,36,13.10
2014,04,14,10,37,13.20
2014,04,14,10,38,13.30
2014,04,14,10,39,13.30
2014,04,14,10,40,13.50
2014,04,14,10,41,13.60
2014,04,14,10,42,13.70
2014,04,14,10,43,13.80
2014,04,14,10,44,13.90
2014,04,14,10,45,13.90
2014,04,14,10,46,13.80
2014,04,14,10,47,13.80
2014,04,14,10,48,13.90
2014,04,14,10,49,13.90
2014,04,14,10,50,13.90
2014,04,14,10,51,13.90
2014,04,14,10,52,13.90
2014,04,14,10,53,13.90
2014,04,14,10,54,14.00
2014,04,14,10,55,14.00
2014,04,14,10,56,13.90
2014,04,14,10,57,13.80
2014,04,14,10,58,13.70
2014,04,14,10,59,13.70
2014,04,14,11,00,13.70
2014,04,14,11,01,13.70
2014,04,14,11,02,13.70
2014,04,14,11,03,13.80
2014,04,14,11,04,13.80
2014,04,14,11,05,13.80
2014,04,14,11,06,13.90
2014,04,14,11,07,14.00
2014,04,14,11,08,14.10
2014,04,14,11,09,14.20
2014,04,14,11,10,14.40
2014,04,14,11,11,14.40
2014,04,14,11,12,14.40
2014,04,14,11,13,14.50
2014,04,14,11,14,14.50
2014,04,14,11,15,14.60
2014,04,14,11,16,14.60
2014,04,14,11,17,14.60
2014,04,14,11,18,14.60
2014,04,14,11,19,14.70
2014,04,14,11,20,14.80
2014,04,14,11,21,14.90
2014,04,14,11,22,14.90
2014,04,14,11,23,14.80
2014,04,14,11,24,14.70
2014,04,14,11,25,14.70
2014,04,14,11,26,14.70
2014,04,14,11,27,14.70
2014,04,14,11,28,14.70
2014,04,14,11,29,14.70
2014,04,14,11,30,14.60
2014,04,14,11,31,14.60
2014,04,14,11,32,14.50
2014,04,14,11,33,14.50
2014,04,14,11,34,14.30
2014,04,14,11,35,14.20
2014,04,14,11,36,14.00
2014,04,14,11,37,13.90
2014,04,14,11,38,13.80
2014,04,14,11,39,13.80
2014,04,14,11,40,13.70
2014,04,14,11,41,13.70
2014,04,14,11,42,13.70
2014,04,14,11,43,13.70
2014,04,14,11,44,13.80
2014,04,14,11,45,13.80
2014,04,14,11,46,13.80
2014,04,14,11,47,13.80
2014,04,14,11,48,13.80
2014,04,14,11,49,13.90
2014,04,14,11,50,13.90
2014,04,14,11,51,14.00
2014,04,14,11,52,14.00
2014,04,14,11,53,14.00
2014,04,14,11,54,14.00
2014,04,14,11,55,14.00
2014,04,14,11,56,14.00
2014,04,14,11,57,14.10
2014,04,14,11,58,14.10
2014,04,14,11,59,14.10
2014,04,14,12,00,14.20
2014,04,14,12,01,14.20
2014,04,14,12,02,14.20
2014,04,14,12,03,14.10
2014,04,14,12,04,13.90
2014,04,14,12,05,13.80
2014,04,14,12,06,13.70
2014,04,14,12,07,13.60
2014,04,14,12,08,13.60
2014,04,14,12,09,13.50
2014,04,14,12,10,13.50
2014,04,14,12,11,13.50
2014,04,14,12,12,13.50
2014,04,14,12,13,13.50
2014,04,14,12,14,13.60
2014,04,14,12,15,13.70
2014,04,14,12,16,13.80
2014,04,14,12,17,13.80
2014,04,14,12,18,13.80
2014,04,14,12,19,13.80
2014,04,14,12,20,13.90
2014,04,14,12,21,13.90
2014,04,14,12,22,13.90
2014,04,14,12,23,14.00
2014,04,14,12,24,14.10
2014,04,14,12,25,14.10
2014,04,14,12,26,14.20
2014,04,14,12,27,14.20
2014,04,14,12,28,14.20
2014,04,14,12,29,14.20
2014,04,14,12,30,14.20
2014,04,14,12,31,14.20
2014,04,14,12,32,14.30
2014,04,14,12,33,14.40
2014,04,14,12,34,14.40
2014,04,14,12,35,14.40
2014,04,14,12,36,14.40
2014,04,14,12,37,14.30
2014,04,14,12,38,14.30
2014,04,14,12,39,14.20
2014,04,14,12,40,14.20
2014,04,14,12,41,14.20
2014,04,14,12,42,14.30
2014,04,14,12,43,14.30
2014,04,14,12,44,14.30
2014,04,14,12,45,14.20
2014,04,14,12,46,14.30
2014,04,14,12,47,14.30
2014,04,14,12,48,14.40
2014,04,14,12,49,14.50
2014,04,14,12,50,14.60
2014,04,14,12,51,14.70
2014,04,14,12,52,14.70
2014,04,14,12,53,14.70
2014,04,14,12,54,14.80
2014,04,14,12,55,14.90
2014,04,14,12,56,15.00
2014,04,14,12,57,15.00
2014,04,14,12,58,15.00
2014,04,14,12,59,15.10
2014,04,14,13,00,15.20
2014,04,14,13,01,15.20
2014,04,14,13,02,15.20
2014,04,14,13,03,15.20
2014,04,14,13,04,15.10
2014,04,14,13,05,15.00
2014,04,14,13,06,15.00
2014,04,14,13,07,15.00
2014,04,14,13,08,15.00
2014,04,14,13,09,15.00
2014,04,14,13,10,15.00
2014,04,14,13,11,15.00
2014,04,14,13,12,15.00
2014,04,14,13,13,15.10
2014,04,14,13,14,15.30
2014,04,14,13,15,15.40
2014,04,14,13,16,15.40
2014,04,14,13,17,15.40
2014,04,14,13,18,15.40
2014,04,14,13,19,15.50
2014,04,14,13,20,15.60
2014,04,14,13,21,15.70
2014,04,14,13,22,15.70
2014,04,14,13,23,15.70
2014,04,14,13,24,15.60
2014,04,14,13,25,15.60
2014,04,14,13,26,15.60
2014,04,14,13,27,15.80
2014,04,14,13,28,15.90
2014,04,14,13,29,15.90
2014,04,14,13,30,16.00
2014,04,14,13,31,16.10
2014,04,14,13,32,16.20
2014,04,14,13,33,16.30
2014,04,14,13,34,16.40
2014,04,14,13,35,16.50
2014,04,14,13,36,16.60
2014,04,14,13,37,16.70
2014,04,14,13,38,16.80
2014,04,14,13,39,16.80
2014,04,14,13,40,16.80
2014,04,14,13,41,16.70
2014,04,14,13,42,16.60
2014,04,14,13,43,16.50
2014,04,14,13,44,16.30
2014,04,14,13,45,16.10
2014,04,14,13,46,15.90
2014,04,14,13,47,15.70
2014,04,14,13,48,15.60
2014,04,14,13,49,15.60
2014,04,14,13,50,15.60
2014,04,14,13,51,15.70
2014,04,14,13,52,15.80
2014,04,14,13,53,15.80
2014,04,14,13,54,15.80
2014,04,14,13,55,15.80
2014,04,14,13,56,15.80
2014,04,14,13,57,15.80
2014,04,14,13,58,15.90
2014,04,14,13,59,15.90
2014,04,14,14,00,15.90
2014,04,14,14,01,15.90
2014,04,14,14,02,15.90
2014,04,14,14,03,16.00
2014,04,14,14,04,16.00
2014,04,14,14,05,15.90
2014,04,14,14,06,15.80
2014,04,14,14,07,15.70
2014,04,14,14,08,15.60
2014,04,14,14,09,15.50
2014,04,14,14,10,15.40
2014,04,14,14,11,15.40
2014,04,14,14,12,15.20
2014,04,14,14,13,15.00
2014,04,14,14,14,15.00
2014,04,14,14,15,15.00
2014,04,14,14,16,14.90
2014,04,14,14,17,14.80
2014,04,14,14,18,14.90
2014,04,14,14,19,14.90
2014,04,14,14,20,15.00
2014,04,14,14,21,15.00
2014,04,14,14,22,15.00
2014,04,14,14,23,15.20
2014,04,14,14,24,15.20
2014,04,14,14,25,15.20
2014,04,14,14,26,15.10
2014,04,14,14,27,15.00
2014,04,14,14,28,15.00
2014,04,14,14,29,15.00
2014,04,14,14,30,15.00
2014,04,14,14,31,15.00
2014,04,14,14,32,15.00
2014,04,14,14,33,15.00
2014,04,14,14,34,15.00
2014,04,14,14,35,15.00
2014,04,14,14,36,14.90
2014,04,14,14,37,14.80
2014,04,14,14,38,14.70
2014,04,14,14,39,14.60
2014,04,14,14,40,14.60
2014,04,14,14,41,14.60
2014,04,14,14,42,14.60
2014,04,14,14,43,14.60
2014,04,14,14,44,14.60
2014,04,14,14,45,14.70
2014,04,14,14,46,14.70
2014,04,14,14,47,14.80
2014,04,14,14,48,14.80
2014,04,14,14,49,14.80
2014,04,14,14,50,14.70
2014,04,14,14,51,14.50
2014,04,14,14,52,14.40
2014,04,14,14,53,14.30
2014,04,14,14,54,14.30
2014,04,14,14,55,14.40
2014,04,14,14,56,14.50
2014,04,14,14,57,14.60
2014,04,14,14,58,14.80
2014,04,14,14,59,15.00
2014,04,14,15,00,15.00
2014,04,14,15,01,15.00
2014,04,14,15,02,15.00
2014,04,14,15,03,15.00
2014,04,14,15,04,15.10
2014,04,14,15,05,15.20
2014,04,14,15,06,15.30
2014,04,14,15,07,15.30
2014,04,14,15,08,15.40
2014,04,14,15,09,15.50
2014,04,14,15,10,15.60
2014,04,14,15,11,15.60
2014,04,14,15,12,15.70
2014,04,14,15,13,15.80
2014,04,14,15,14,15.90
2014,04,14,15,15,16.10
2014,04,14,15,16,16.20
2014,04,14,15,17,16.20
2014,04,14,15,18,16.30
2014,04,14,15,19,16.30
2014,04,14,15,20,16.30
2014,04,14,15,21,16.20
2014,04,14,15,22,16.10
2014,04,14,15,23,16.00
2014,04,14,15,24,16.00
2014,04,14,15,25,16.00
2014,04,14,15,26,16.10
2014,04,14,15,27,16.20
2014,04,14,15,28,16.20
2014,04,14,15,29,16.40
2014,04,14,15,30,16.50
2014,04,14,15,31,16.70
2014,04,14,15,32,16.80
2014,04,14,15,33,17.00
2014,04,14,15,34,17.20
2014,04,14,15,35,17.40
2014,04,14,15,36,17.70
2014,04,14,15,37,17.90
2014,04,14,15,38,18.10
2014,04,14,15,39,18.20
2014,04,14,15,40,18.20
2014,04,14,15,41,18.30
2014,04,14,15,42,18.30
2014,04,14,15,43,18.40
2014,04,14,15,44,18.40
2014,04,14,15,45,18.50
2014,04,14,15,46,18.50
2014,04,14,15,47,18.50
2014,04,14,15,48,18.60
2014,04,14,15,49,18.50
2014,04,14,15,50,18.50
2014,04,14,15,51,18.50
2014,04,14,15,52,18.50
2014,04,14,15,53,18.50
2014,04,14,15,54,18.50
2014,04,14,15,55,18.40
2014,04,14,15,56,18.40
2014,04,14,15,57,18.40
2014,04,14,15,58,18.30
2014,04,14,15,59,18.30
2014,04,14,16,00,18.20
2014,04,14,16,01,18.10
2014,04,14,16,02,18.10
2014,04,14,16,03,18.10
2014,04,14,16,04,18.10
2014,04,14,16,05,18.10
2014,04,14,16,06,18.20
2014,04,14,16,07,18.20
2014,04,14,16,08,18.20
2014,04,14,16,09,18.20
2014,04,14,16,10,18.20
2014,04,14,16,11,18.20
2014,04,14,16,12,18.30
2014,04,14,16,13,18.30
2014,04,14,16,14,18.30
2014,04,14,16,15,18.30
2014,04,14,16,16,18.30
2014,04,14,16,17,18.30
2014,04,14,16,18,18.30
2014,04,14,16,19,18.20
2014,04,14,16,20,18.20
2014,04,14,16,21,18.20
2014,04,14,16,22,18.10
2014,04,14,16,23,18.00
2014,04,14,16,24,17.90
2014,04,14,16,25,17.80
2014,04,14,16,26,17.80
2014,04,14,16,27,17.70
2014,04,14,16,28,17.60
2014,04,14,16,29,17.60
2014,04,14,16,30,17.50
2014,04,14,16,31,17.40
2014,04,14,16,32,17.40
2014,04,14,16,33,17.40
2014,04,14,16,34,17.40
2014,04,14,16,35,17.40
2014,04,14,16,36,17.30
2014,04,14,16,37,17.30
2014,04,14,16,38,17.30
2014,04,14,16,39,17.20
2014,04,14,16,40,17.20
2014,04,14,16,41,17.20
2014,04,14,16,42,17.30
2014,04,14,16,43,17.40
2014,04,14,16,44,17.40
2014,04,14,16,45,17.40
2014,04,14,16,46,17.40
2014,04,14,16,47,17.40
2014,04,14,16,48,17.30
2014,04,14,16,49,17.20
2014,04,14,16,50,17.10
2014,04,14,16,51,17.00
2014,04,14,16,52,16.90
2014,04,14,16,53,16.80
2014,04,14,16,54,16.70
2014,04,14,16,55,16.60
2014,04,14,16,56,16.50
2014,04,14,16,57,16.40
2014,04,14,16,58,16.40
2014,04,14,16,59,16.30
2014,04,14,17,00,16.30
2014,04,14,17,01,16.30
2014,04,14,17,02,16.30
2014,04,14,17,03,16.20
2014,04,14,17,04,16.10
2014,04,14,17,05,16.10
2014,04,14,17,06,16.00
2014,04,14,17,07,16.00
2014,04,14,17,08,16.00
2014,04,14,17,09,16.00
2014,04,14,17,10,16.00
2014,04,14,17,11,16.10
2014,04,14,17,12,16.10
2014,04,14,17,13,16.20
2014,04,14,17,14,16.20
2014,04,14,17,15,16.30
2014,04,14,17,16,16.30
2014,04,14,17,17,16.30
2014,04,14,17,18,16.30
2014,04,14,17,19,16.30
2014,04,14,17,20,16.30
2014,04,14,17,21,16.30
2014,04,14,17,22,16.30
2014,04,14,17,23,16.30
2014,04,14,17,24,16.30
2014,04,14,17,25,16.30
2014,04,14,17,26,16.40
2014,04,14,17,27,16.40
2014,04,14,17,28,16.50
2014,04,14,17,29,16.50
2014,04,14,17,30,16.60
2014,04,14,17,31,16.60
2014,04,14,17,32,16.50
2014,04,14,17,33,16.50
2014,04,14,17,34,16.40
2014,04,14,17,35,16.40
2014,04,14,17,36,16.30
2014,04,14,17,37,16.30
2014,04,14,17,38,16.30
2014,04,14,17,39,16.30
2014,04,14,17,40,16.30
2014,04,14,17,41,16.20
2014,04,14,17,42,16.20
2014,04,14,17,43,16.10
2014,04,14,17,44,16.10
2014,04,14,17,45,16.10
2014,04,14,17,46,16.00
2014,04,14,17,47,15.90